Regional Weather Roundup
Issued by NWS Charleston, SC

Current Version | Previous Version | Graphics & Text | Print | Product List | Glossary On
Versions: 1 2 3 4 5 6 7 8 9 10 11 12 13 14 15 16 17 18 19 20 21 22 23 24 25 26 27 28 29 30 31 32 33 34 35 36 37 38 39 40 41 42 43 44 45 46 47 48 49 50
000
ASUS42 KCHS 031227
RWRCHS

REGIONAL WEATHER ROUNDUP
NATIONAL WEATHER SERVICE CHARLESTON SC
800 AM EDT MON AUG 03 2015

NOTE: "FAIR" INDICATES FEW OR NO CLOUDS BELOW 12,000 FEET WITH NO
SIGNIFICANT WEATHER AND/OR OBSTRUCTIONS TO VISIBILITY.

NOT ALL STATIONS ARE QUALITY CONTROLLED BY THE NATIONAL
WEATHER SERVICE. USE DATA WITH CAUTION...ESPECIALLY
DEWPOINT OBSERVATIONS.

SCZ027-030-031-034>040-042>050-031300-
...SOUTHEAST SOUTH CAROLINA...

CITY           SKY/WX    TMP DP  RH WIND       PRES   REMARKS
N CHARLESTON   PTSUNNY   79  75  87 S5        29.93R
6HR MIN TEMP:  76; 6HR MAX TEMP:  79; 6HR PCP: TRACE;

WATERFRONT PRK   N/A     80  75  84 S7        29.90R
MOUNT PLEASANT FAIR      77  75  94 S6        29.94R FOG
JOHNS ISLAND   FAIR      81  75  83 S6        29.93S
PINOPOLIS      NOT AVBL
MONCKS CORNER  FAIR      77  73  88 CALM      29.94R
SUMMERVILLE    PTSUNNY   77  77 100 CALM      29.94R
BEAUFORT MCAS  CLOUDY    79  76  90 CALM      29.91R
6HR MIN TEMP:  76; 6HR MAX TEMP:  79; 6HR PCP: TRACE;

BEAUFORT ARPT  PTSUNNY   79  77  94 CALM      29.92R FOG
HILTON HEAD IS PTSUNNY   81  73  78 S6        29.92R
WALTERBORO     CLOUDY    77  73  88 NE3       29.94R
ALLENDALE      CLOUDY    75  75 100 CALM      29.92R FOG

...SOUTHERN MIDLANDS AND PEE DEE...

CITY           SKY/WX    TMP DP  RH WIND       PRES   REMARKS
GEORGETOWN     NOT AVBL
KINGSTREE      NOT AVBL
ORANGEBURG     CLOUDY    75  72  90 CALM      29.93S
6HR MIN TEMP:  73; 6HR MAX TEMP:  75; 6HR PCP:  0.01;

BARNWELL       CLOUDY    75  75 100 CALM      29.94R
AIKEN          CLOUDY    64  64 100 CALM      29.98R FOG
MANNING        HVY RAIN  73  73 100 CALM      29.94R
COLUMBIA       PTSUNNY   75  71  87 CALM      29.93R FOG
6HR MIN TEMP:  74; 6HR MAX TEMP:  76;

SUMTER         PTSUNNY   75  72  88 SE3       29.92R
6HR MIN TEMP:  71; 6HR MAX TEMP:  75;

FLORENCE       MOSUNNY   75  73  93 CALM      29.94R
6HR MIN TEMP:  74; 6HR MAX TEMP:  76;

MYRTLE BEACH   PTSUNNY   79  72  78 CALM      29.95S
N MYRTLE BEACH CLOUDY    78  73  84 CALM      29.93S
6HR MIN TEMP:  76; 6HR MAX TEMP:  81; 6HR PCP: TRACE;


$$

GAZ063-065-086>088-099>101-113>116-118-119-134>141-150-031300-
...SOUTHEAST GEORGIA...

CITY           SKY/WX    TMP DP  RH WIND       PRES   REMARKS
SAVANNAH ARPT  PTSUNNY   78  75  90 E3        29.91R
6HR MIN TEMP:  77; 6HR MAX TEMP:  78; 6HR PCP:  0.01;

HUNTER AAF     MOSUNNY   79  78  97 SE3       29.88R
6HR MIN TEMP:  77; 6HR MAX TEMP:  79; 6HR PCP: TRACE;

FORT STEWART   PTSUNNY   79  73  83 E3        29.86
STATESBORO     CLOUDY    76  32  20 CALM      29.92R
SYLVANIA       DRIZZLE   76  76  99 CALM      29.93R
CLAXTON        NOT AVBL

...CSRA...CENTRAL AND FAR SOUTHEAST GEORGIA...

CITY           SKY/WX    TMP DP  RH WIND       PRES   REMARKS
THOMSON        CLOUDY    75  75 100 CALM      29.98R
AUGUSTA-BUSH   CLOUDY    75  73  93 CALM      29.92R
6HR MIN TEMP:  71; 6HR MAX TEMP:  75;

AUGUSTA-DANIEL CLOUDY    76  72  87 SE5       29.94R
SWAINSBORO     PTSUNNY  N/A N/A N/A CALM      29.93R
VIDALIA        CLOUDY    75  73  94 NE3       29.91S
EASTMAN        CLOUDY    78  78 100 E6        29.93R
HAZLEHURST     CLOUDY    77  77 100 CALM      29.89R
ALMA           CLOUDY    76  73  91 CALM      29.88R
6HR MIN TEMP:  75; 6HR MAX TEMP:  77;

WAYCROSS       CLOUDY    78  77  98 E3        29.88R
JESUP          PTSUNNY   81  75  83 SE5       29.89R
BAXLEY         CLOUDY    77  75  94 NE3       29.89R
BRUNSWICK      CLOUDY    81  73  78 SE6       29.89R
SAINT SIMONS   CLOUDY    80  72  76 SE10G21   29.88R
6HR MIN TEMP:  79; 6HR MAX TEMP:  80;


$$

SCZ027-028-034-036>038-045-046-048>050-GAZ119-141-031300-
...LAKE AND SUPPLEMENTAL COASTAL OBSERVATIONS...

STATION/POSITION TIME  TEMP    WIND        PRES    WAVE   SWELL
                       AIR SEA DIR/SP/G            HT/PER HT/PER/DIR
                 (UTC) (F)     (DEG/KT/KT) (MB)    (FT/S) (FT/S/D)
UPR LAKE MARION  NOT AVBL
WINYAH BAY       1100   76     240/  2     1013.0R
LAKE MURRAY      1200   76      90/  4/  5 1013.2R
ACE BASIN NERRS  NOT AVBL
FORT PULASKI     1200   82 86  150/  6/ 12 1013.1R
SAPELO ISLAND    1200   81     150/  8     1012.0S

$$

ANZ835-935-AMZ111-154-330-350-352-354-370-450-454-472-031300-
...C-MAN AND BUOY OBSERVATIONS...

STATION/POSITION TIME  TEMP    WIND        PRES    WAVE   SWELL
                       AIR SEA DIR/SP/G            HT/PER HT/PER/DIR
                 (UTC) (F)     (DEG/KT/KT) (MB)    (FT/S) (FT/S/D)
BUOY 41004       1150   82 83  210/  8/ 10 1013.3R   4/ 6   3/ 6
BUOY 41008       1150   81 83  170/ 14/ 17 1012.4R   5/ 6   2/ 40/11
FOLLY BEACH CMAN 1200   81     190/ 11/ 13 1013.5R
CAPERS NEARSHORE 1108   82     210/ 12/ 16 1013.6R
FRIPP NEARSHORE  1100   82     190/ 14/ 17 1012.5R


STATION/POSITION TIME  TEMP    WIND        PRES    WAVE   SWELL
                       AIR SEA DIR/SP/G            HT/PER HT/PER/DIR
                 (UTC) (F)     (DEG/KT/KT) (MB)    (FT/S) (FT/S/D)
5E ST. MARYS GA  1121      82                N/A     5/ 6   2/100/11
FRYING PAN BUOY  1150   79 82  190/  8/ 12 1014.6R   5/ 6   5/190/ 6
BUOY 41025       1150   75 84  280/  8/ 10 1015.1R   7/ 7   7/230/ 7
CAPE LOOKOUT NC  1200   78     280/ 15/ 17 1014.5R
BUOY 41002       1150   82 81  210/ 16/ 17 1016.8R   5/ 6   2/110/11
BUOY 41010       1120   83 84  170/ 14/ 17 1014.6R
ST AUGUSTINE FL  1200   77 78  180/ 15/ 16 1012.5R


$$


USA.gov is the U.S. government's official web portal to all federal, state and local government web resources and services.